User: anonymous   Login
Location: Unspecified
(0.0000°N, 0.0000°E)
Time: 02:08:42
(UTC+00:00)
Language:

Explorer 7 - Orbit

View from above orbital plane
View from above orbital plane
View from above satellite
View from above satellite

Ground track
Ground track

The orbit data is extracted from the following two-line orbital elements,

1    22U 59009A   19145.87915201 -.00000104  00000-0  15389-4 0  9996
2    22  50.2836 124.8533 0140247 214.5362 144.6413 14.94865140167196
Epoch (UTC): 25 May 2019 21:05:58
Eccentricity: 0.0140247
inclination: 50.2836°
perigee height: 485 km
apogee height: 680 km
right ascension of ascending node: 124.8533°
argument of perigee: 214.5362°
revolutions per day: 14.94865140
mean anomaly at epoch: 144.6413°
orbit number at epoch: 16719

The dashed part of the orbit path shows where the satellite is in the earth's shadow,  

DLR